Powrót do katalogu

FENGYUN 1C DEB

AktywnyPO
NORAD 32451·DEBRIS·🇨🇳 China

Wystrzelony May 10, 1999 z Taiyuan Satellite Launch Center

Loading…

Następne Przeloty (najbliższe 24 godziny)

TLE

ŚwieżeSource: Space-Track

Epoka: Sep 14, 2026, 05:54 UTC

1 32451U 99025DBP 26257.24583350  .00001763  00000-0  13297-2 0  9993
2 32451  99.9874 260.8226 0182436 191.8135 167.8711 13.88179828655856

Śledź FENGYUN 1C DEB w czasie rzeczywistym z AllMySat

Download on the App Store